Wind_Gust
15 18 16 17 18 19 19 19 16 26 27 26 25 24 30 23 19 12 9 13 14 15 19 10 11 11 15 17 22 18 16 21 20 14 13 17 7 19 17 22 26 24 24 24 21 24 24 18 17 18 18 20 20 20 20 22 23 22 22 21 21 21 21 20 20 20 20 20 19 18 17 17 17 17 16 16 16 15 16 17 17 17 17 18 18 17 17 17 19 19 18 17 16 16 16 16 16
20 17 17 16 19 19 21 21 26 19 25 23 29 24 21 18 10 14 20 11 15 14 14 14 14 13 14 16 17 14 16 21 20 23 17 15 15 17 20 21 26 24 24 23 21 22 22 23 17 17 19 19 20 19 21 21 22 22 22 22 22 21 21 21 20 20 20 19 18 17 17 16 16 15 14 16 15 14 13 15 16 17 18 17 17 16 16 16 17 18 19 18 17 15 15 14 15
20 17 18 17 18 22 21 22 23 22 23 26 29 25 17 16 8 9 18 18 13 13 8 11 14 17 17 14 17 18 17 18 19 19 18 14 16 17 21 22 22 24 22 23 22 21 21 22 16 18 18 19 19 19 20 22 21 22 22 21 22 22 21 21 20 20 19 18 17 17 17 17 15 14 15 16 15 13 13 13 15 17 17 16 15 15 15 15 15 16 18 18 18 17 15 14 13
21 22 22 17 19 20 21 19 25 24 25 23 23 16 13 13 18 15 13 15 10 12 12 16 16 22 19 15 17 10 19 18 17 12 16 15 14 18 22 22 21 24 22 25 22 21 20 21 16 17 17 18 19 19 20 20 21 22 22 21 23 23 21 21 20 18 17 17 17 16 16 16 15 14 16 14 13 14 13 11 12 16 16 14 13 13 13 13 13 13 14 16 17 17 16 14 13
20 20 20 21 22 22 24 23 23 25 25 22 17 18 18 15 15 10 11 9 12 14 11 14 21 13 11 13 11 14 14 15 13 12 20 15 19 20 20 21 24 23 22 24 23 21 21 19 15 16 17 18 17 18 20 20 21 21 21 22 23 23 22 22 20 18 17 17 17 17 17 16 15 15 15 15 15 14 12 11 12 15 14 13 11 12 11 10 11 11 12 14 15 16 16 14 13
20 22 18 21 24 23 24 23 23 26 24 26 26 19 13 17 16 13 9 12 9 8 14 15 21 8 17 21 22 20 15 8 11 12 14 15 18 19 20 19 22 23 22 22 22 21 23 16 16 16 16 17 18 19 19 20 21 21 22 22 23 22 22 20 19 19 18 18 17 18 17 15 15 15 14 15 15 14 12 13 13 13 14 13 13 12 11 10 10 10 11 13 15 14 13 13 12
22 19 21 21 26 25 22 22 23 23 28 25 26 16 21 13 15 12 14 13 10 11 9 17 11 12 15 24 27 21 15 11 9 14 12 17 19 20 20 19 20 20 22 21 20 23 23 16 16 16 17 18 19 19 20 21 22 21 22 23 22 22 20 20 18 18 19 18 18 18 16 15 15 14 15 16 15 14 13 13 15 12 12 12 12 11 11 10 10 12 12 13 12 11 10 10 9
22 26 19 22 22 23 23 23 25 25 18 14 13 16 19 14 8 9 13 10 14 18 19 13 11 17 13 13 20 18 14 13 16 19 19 19 19 19 19 18 19 20 22 17 20 26 23 16 16 16 18 18 20 21 22 22 21 20 22 21 21 20 20 19 18 16 16 17 18 17 16 15 14 14 17 17 16 15 13 13 15 14 12 12 11 12 10 10 11 12 12 11 10 10 8 8 8
22 23 18 25 24 24 22 24 24 23 21 13 12 16 8 9 11 15 12 14 12 19 21 13 12 15 16 21 24 15 15 12 19 17 19 18 18 18 17 17 20 22 26 24 23 25 22 17 16 16 17 19 20 20 21 20 19 20 21 21 19 18 18 18 18 16 16 15 16 17 16 15 14 14 16 17 16 14 14 15 14 13 13 12 11 11 11 11 12 11 10 10 10 9 8 7 7
23 23 21 24 20 23 22 23 22 22 26 15 14 17 10 14 13 14 16 14 19 17 13 13 10 17 28 23 23 14 19 14 19 19 16 15 15 15 17 21 22 30 27 22 19 25 21 21 17 16 16 17 17 17 17 17 19 19 19 18 17 17 16 15 14 15 16 15 13 13 14 14 14 14 16 18 16 15 15 15 15 14 13 12 12 12 12 12 11 10 10 11 10 9 9 8 8
25 24 19 23 21 22 22 21 22 18 22 13 8 11 11 12 9 15 11 15 17 19 16 12 16 18 20 20 20 14 21 32 29 21 14 14 26 26 25 27 30 29 29 19 18 24 21 19 22 16 15 13 14 14 14 15 15 16 15 15 15 15 15 14 14 14 14 15 14 11 12 13 16 16 16 17 16 15 15 15 15 14 13 13 13 13 12 11 10 10 11 10 10 9 10 9 8
23 23 21 22 21 21 21 22 17 17 12 14 14 13 13 12 9 14 12 13 16 12 17 14 20 14 20 20 16 17 27 29 23 16 13 25 27 29 30 25 28 21 18 17 20 21 22 18 18 19 14 12 11 12 11 12 12 13 14 13 13 13 13 13 14 16 17 15 13 11 11 13 16 15 14 15 14 14 15 14 14 14 14 14 13 11 11 11 10 10 10 10 10 9 10 10 9
25 20 21 22 22 21 20 21 20 22 12 9 14 24 14 14 8 12 15 16 18 14 23 15 12 10 19 13 15 16 23 11 14 16 16 26 26 25 21 22 16 16 11 15 23 22 19 19 19 17 15 15 12 10 10 11 10 11 11 11 12 12 15 15 15 16 16 15 14 12 12 13 15 15 16 15 16 14 15 14 14 14 13 14 12 12 11 10 9 10 10 10 10 9 9 9 9
25 22 20 24 19 23 23 21 19 18 14 25 23 14 8 15 11 12 16 15 15 14 17 21 18 26 21 21 17 15 13 13 14 21 29 27 27 31 18 17 17 13 10 17 25 24 22 21 21 22 21 16 14 13 10 10 10 10 10 11 12 13 14 15 15 15 16 15 13 12 14 14 15 15 14 13 14 12 12 13 13 13 14 13 13 12 11 10 10 10 10 10 9 9 9 9 8
25 17 20 21 23 20 18 23 18 13 16 14 18 7 8 15 11 11 15 13 15 16 20 15 16 20 15 16 19 17 18 17 17 31 27 28 28 29 14 11 15 13 11 18 21 19 19 20 21 21 18 18 18 15 14 15 13 11 10 12 13 13 13 15 16 18 20 18 15 15 15 16 16 16 14 12 11 11 13 14 14 14 14 14 12 11 10 10 10 10 10 9 9 9 9 9 8
21 20 20 21 22 20 17 19 19 19 19 12 12 17 13 13 11 15 14 15 24 14 8 21 21 18 20 15 17 22 22 21 24 31 29 22 23 21 17 15 14 15 13 13 17 17 16 16 15 15 21 23 20 16 16 15 14 13 12 13 14 13 14 16 18 17 18 18 18 16 15 18 16 17 16 17 14 13 12 13 15 15 14 14 13 11 10 10 10 10 9 9 9 10 10 9 8
17 18 19 20 23 21 16 18 13 22 21 18 10 16 12 13 14 15 9 14 19 18 12 24 25 16 19 13 17 25 23 17 24 27 23 15 17 16 15 17 18 16 14 12 14 19 19 19 13 13 17 15 15 17 18 18 18 17 13 12 13 14 14 16 18 18 16 16 15 13 12 14 13 13 16 16 17 16 10 12 16 15 14 14 13 12 11 10 10 10 9 9 9 10 10 9 8
17 21 21 20 21 22 13 22 25 16 20 13 11 15 12 13 12 13 14 21 17 14 13 29 25 22 18 17 18 21 21 18 23 24 20 17 14 17 14 17 19 20 18 16 17 21 24 22 20 16 15 15 15 13 18 18 17 16 14 14 15 15 16 17 18 17 15 13 13 16 11 9 9 7 8 11 13 15 16 13 13 14 13 13 10 10 10 10 9 9 8 9 10 11 12 13 9
21 20 23 23 20 13 16 17 13 15 23 11 11 7 7 14 10 17 17 16 12 16 19 28 25 22 16 17 17 16 17 16 20 21 23 18 16 17 17 21 20 22 22 19 20 20 21 26 21 22 19 18 15 14 16 18 16 14 14 14 15 13 16 17 17 17 16 16 17 14 10 6 9 7 8 12 11 12 15 14 14 14 13 12 10 8 9 8 9 9 8 9 8 10 14 11 11
21 22 22 23 22 17 13 14 12 14 15 11 11 11 8 14 15 10 14 17 14 19 25 28 24 18 17 15 16 14 13 16 17 18 21 20 17 17 18 21 23 22 22 21 22 22 24 24 22 21 22 19 18 14 13 17 15 13 14 13 13 13 15 13 13 12 13 13 12 8 6 7 8 7 11 13 12 12 13 10 12 14 13 12 12 10 7 6 7 7 9 7 6 10 14 11 12
18 25 25 24 14 17 9 13 16 12 12 16 13 13 13 17 18 10 15 15 21 19 25 29 21 19 20 15 15 14 16 16 17 18 18 20 20 16 17 17 22 23 22 21 21 22 24 26 24 22 22 21 17 16 14 16 14 14 12 13 12 11 8 9 9 9 11 9 10 9 9 11 12 10 11 11 9 14 13 14 15 15 14 12 13 12 12 14 10 12 9 8 11 12 14 9 10
16 22 22 25 26 15 17 9 11 12 14 16 16 17 18 16 12 16 19 23 24 22 19 23 20 22 19 18 16 18 18 18 20 19 17 19 20 17 17 17 15 18 21 21 22 23 24 25 24 26 23 21 20 18 18 18 17 12 9 11 10 11 12 9 7 9 12 10 9 9 10 11 11 11 10 10 12 9 14 16 16 14 14 13 15 14 14 13 14 15 13 13 11 10 9 5 5
25 18 21 23 20 20 16 10 9 8 13 16 17 15 16 14 17 16 16 22 23 18 17 15 19 19 19 17 18 16 17 17 17 20 20 19 19 18 17 18 21 23 22 21 23 22 25 25 24 25 23 21 20 19 18 18 17 15 11 12 10 9 13 11 11 10 12 13 12 10 8 7 9 8 9 11 9 13 14 15 16 15 16 15 15 15 13 12 13 13 12 12 12 12 10 9 6
22 26 16 20 21 21 19 18 13 14 13 16 18 17 18 17 20 17 23 19 21 20 16 12 16 16 16 18 16 17 17 16 15 18 21 19 18 19 19 18 21 19 20 21 22 19 24 26 24 25 25 23 20 20 16 18 16 14 10 15 14 17 12 9 10 10 12 13 12 11 8 7 8 9 9 12 17 14 14 12 12 11 10 12 10 14 13 13 13 9 10 9 10 9 10 9 10
24 28 20 22 19 12 17 17 17 16 17 17 16 19 20 20 21 21 21 16 16 19 12 11 18 17 14 13 14 14 14 14 15 17 17 18 16 18 18 18 18 19 21 22 20 21 21 24 22 23 22 18 17 20 18 16 17 14 13 16 15 16 12 9 9 10 10 10 10 10 7 6 7 9 10 12 8 8 10 11 10 9 11 10 10 9 8 9 10 7 4 4 3 5 7 6 8
25 22 19 19 20 18 17 15 15 16 19 16 18 20 21 21 18 25 23 18 24 20 10 12 17 18 14 12 10 10 13 15 13 16 17 17 15 18 19 18 16 19 18 21 21 19 20 22 23 22 14 15 16 16 18 18 16 13 12 16 16 15 15 10 11 11 10 10 9 8 8 7 6 6 5 5 6 7 12 10 9 8 6 6 6 6 4 3 4 7 3 4 7 9 10 6 4
11 19 21 21 21 20 17 20 19 18 18 16 21 20 21 19 22 26 18 27 29 14 15 13 14 17 14 12 13 12 11 19 18 18 16 14 16 18 17 15 19 19 20 21 18 18 14 16 19 15 14 12 15 14 15 14 13 12 13 16 14 14 15 16 12 10 10 9 9 8 9 9 9 9 7 7 8 16 13 10 9 7 4 5 5 5 4 5 4 4 3 2 4 5 10 8 9
17 16 15 18 19 21 21 19 19 17 20 19 20 22 20 22 24 23 22 25 25 17 16 14 18 16 17 15 15 15 19 23 24 23 19 16 17 18 18 19 18 19 23 20 19 18 14 12 14 14 15 13 14 16 14 14 13 13 9 15 16 17 16 16 13 10 10 9 9 10 12 12 12 13 15 17 20 17 11 9 8 9 7 6 4 5 4 3 4 6 5 6 3 4 3 5 4
19 17 20 19 21 28 22 27 23 19 22 16 17 20 24 23 26 21 28 27 16 17 15 18 22 18 17 16 16 19 20 23 22 16 15 14 13 16 18 17 20 20 20 21 22 25 17 10 17 15 18 14 15 14 13 12 14 13 9 12 13 14 14 15 14 13 15 12 11 14 16 17 20 18 14 21 24 20 9 9 9 8 9 9 8 7 7 5 4 5 6 4 4 5 5 4 6
18 18 22 22 24 26 26 25 22 21 21 19 14 23 21 27 28 24 27 27 17 17 18 19 21 19 12 14 15 17 18 22 26 15 17 14 12 14 18 19 19 20 20 20 24 26 24 16 12 12 14 16 15 13 12 11 18 16 12 14 11 10 11 12 13 14 14 13 12 8 9 12 11 10 17 16 18 10 9 8 7 8 8 6 6 5 6 5 6 6 6 6 6 6 4 5 4
24 19 21 23 23 27 25 29 23 22 19 17 10 24 22 27 26 28 29 27 19 18 18 18 27 21 17 13 12 15 18 23 23 19 19 11 11 15 18 19 18 17 20 22 25 26 24 21 20 19 21 20 18 13 15 14 16 17 13 9 10 10 9 11 14 15 14 11 11 9 9 9 16 16 18 16 10 10 12 9 9 8 7 8 8 7 6 4 4 4 4 7 5 3 4 4 3
21 24 26 24 24 26 27 26 21 22 20 17 18 23 26 26 30 30 29 27 18 16 19 24 26 24 17 14 13 12 10 11 12 14 11 14 10 15 17 18 17 18 20 24 29 29 23 21 23 21 23 22 19 16 15 14 18 17 15 11 11 7 10 12 11 13 13 11 10 10 7 8 8 11 10 10 6 7 8 9 6 7 8 6 6 6 6 6 5 4 5 7 5 6 6 6 4
26 24 19 24 23 23 18 25 22 21 18 18 22 24 23 23 14 14 22 18 19 20 16 25 22 22 22 21 13 16 17 15 15 15 13 13 13 17 17 17 18 18 20 25 27 25 25 22 21 22 25 21 15 14 14 12 17 15 17 14 9 7 8 9 9 8 10 11 13 12 7 9 9 7 8 6 7 9 13 15 16 11 5 6 7 3 5 6 6 6 4 5 4 6 8 9 12
26 25 26 23 24 23 23 24 22 22 20 20 22 26 23 25 19 14 19 14 19 18 21 20 18 16 21 23 24 20 18 19 19 18 15 17 17 17 18 17 16 18 20 22 27 28 25 21 19 20 20 20 18 16 13 11 17 16 16 14 10 10 9 11 12 14 12 11 12 11 11 15 12 12 9 10 10 11 7 10 10 13 6 6 6 5 6 6 7 7 6 5 6 6 7 6 8
23 23 22 24 25 27 24 27 27 18 18 21 20 22 22 23 20 21 19 17 19 20 23 21 19 18 15 15 16 15 17 14 17 14 14 15 23 14 17 17 16 17 21 23 25 26 26 21 17 19 21 17 17 17 14 14 13 12 16 14 12 10 8 10 9 9 12 10 9 11 13 11 14 8 10 8 10 8 7 6 5 6 8 8 7 8 6 8 7 6 6 4 7 6 6 6 9
25 23 24 22 22 23 25 23 23 18 18 19 21 24 18 22 24 18 18 22 18 18 19 21 23 22 15 17 13 10 16 14 13 15 23 29 32 31 30 17 14 16 18 23 24 25 25 24 19 19 19 19 16 14 17 16 14 15 14 15 13 17 15 12 9 12 8 11 11 12 14 11 14 10 9 11 9 9 9 5 6 5 6 5 5 5 3 5 4 5 5 4 6 5 5 6 10
28 28 25 22 26 26 24 28 21 17 13 14 17 18 20 22 23 21 27 17 17 16 19 19 23 23 26 25 26 21 22 18 10 19 20 19 26 32 30 27 21 15 17 20 23 24 24 28 24 22 19 16 15 17 15 15 15 14 18 19 17 17 17 13 11 11 9 8 10 11 15 12 14 14 10 10 9 9 9 6 5 5 6 5 6 9 5 8 9 9 6 8 11 7 4 6 12
29 25 22 27 24 21 23 23 32 33 18 14 19 22 23 23 23 23 22 23 22 18 18 20 19 21 21 25 31 36 29 17 11 13 13 15 13 20 25 23 22 20 17 19 20 23 21 22 22 20 16 14 12 11 12 10 12 14 15 16 14 14 17 15 15 10 13 11 10 11 11 12 14 12 10 9 11 11 8 7 7 5 5 8 12 14 17 13 11 9 12 11 14 12 6 8 14
26 23 23 26 25 19 15 27 25 19 14 18 19 25 23 23 23 23 26 27 19 20 18 20 23 23 25 27 28 36 34 27 18 10 13 15 13 11 22 26 25 22 15 16 17 16 15 16 15 14 13 10 8 8 10 12 11 10 12 13 9 11 8 11 14 13 12 12 10 13 11 12 14 13 13 11 11 11 8 9 7 5 8 11 11 14 15 14 13 14 12 10 10 6 9 8 10
26 23 24 27 21 23 22 24 29 24 22 20 17 23 25 25 24 25 24 29 27 19 22 24 24 24 23 24 26 38 36 31 22 20 17 14 15 14 13 27 25 24 15 22 23 22 21 20 13 12 10 12 12 15 11 9 16 19 17 11 14 12 10 13 11 14 12 13 12 13 13 11 12 12 14 12 11 11 10 10 11 12 14 13 9 13 14 15 14 10 13 8 6 9 11 7 11
20 22 23 26 25 25 26 24 21 15 16 11 18 27 30 24 25 24 22 23 28 25 22 23 23 25 23 22 16 29 26 24 20 18 16 15 15 19 22 21 22 19 15 21 23 21 17 16 21 20 18 18 17 16 13 12 15 12 10 9 12 13 12 12 13 12 11 10 10 10 10 9 12 12 14 12 9 9 10 10 11 11 15 12 6 6 9 8 11 10 10 10 8 5 9 9 8
23 22 24 25 23 23 24 24 24 19 21 23 22 28 30 24 28 29 24 24 27 28 24 23 21 19 22 22 20 28 28 26 25 23 22 21 20 18 19 23 22 20 19 23 22 19 17 18 18 15 13 12 14 11 9 13 11 13 13 13 13 13 16 14 13 15 13 10 10 8 11 9 12 11 8 7 9 11 11 11 10 12 10 8 6 6 6 5 6 5 8 6 9 6 7 10 12
23 25 25 27 29 27 24 29 28 27 27 18 22 29 28 20 26 28 30 27 26 25 24 21 19 21 23 20 20 27 27 25 24 21 21 20 20 18 18 19 18 23 18 17 17 17 17 17 14 12 13 11 11 12 11 14 12 9 9 8 9 12 15 13 11 9 8 7 9 8 9 6 8 11 15 16 16 15 13 11 10 11 14 10 9 6 5 7 8 9 6 6 8 5 9 7 9
30 19 20 21 26 29 27 26 25 28 20 24 25 29 27 25 23 21 21 25 28 27 28 25 22 22 23 20 21 29 25 23 24 24 25 23 21 20 20 12 21 19 16 14 15 14 17 18 14 15 15 16 17 17 16 14 12 13 10 8 8 9 12 14 13 11 9 8 10 9 9 6 6 10 10 14 16 14 13 13 12 9 9 11 11 8 8 8 7 8 7 6 7 5 8 10 8
24 19 24 23 20 20 22 24 26 25 25 28 27 25 33 29 23 20 20 21 20 24 21 22 23 24 22 19 23 30 23 26 24 24 26 24 23 22 18 22 21 19 14 13 17 21 22 20 20 20 21 21 23 23 20 16 13 12 9 9 10 9 10 13 14 13 13 8 12 6 8 6 11 12 12 15 15 14 10 8 11 9 9 7 8 5 5 8 7 9 8 5 8 6 7 6 5
22 25 27 27 17 18 23 26 26 26 27 29 26 24 32 27 18 23 18 23 22 23 19 15 15 16 13 16 29 30 21 23 21 20 19 20 20 19 21 23 19 19 21 14 15 20 21 21 23 23 19 26 25 26 23 17 13 13 12 13 12 11 10 11 11 12 11 10 11 12 8 7 10 12 15 15 12 13 12 9 10 10 6 7 11 10 3 6 7 7 8 8 10 10 5 5 6
14 21 25 26 25 22 21 24 25 25 28 33 25 25 28 30 20 13 10 15 20 18 14 13 11 13 15 13 21 20 20 17 17 15 15 16 17 19 21 20 19 19 15 15 17 20 21 20 18 17 17 13 18 23 24 21 19 18 13 13 15 16 16 15 14 12 12 11 13 14 15 14 11 14 14 13 15 13 11 11 9 11 11 9 13 15 11 6 6 5 6 9 11 10 8 6 6
20 24 20 19 21 22 25 26 23 27 32 25 25 27 25 32 22 15 16 16 14 9 8 7 8 9 13 13 18 18 19 23 26 21 18 15 15 15 16 19 17 17 17 20 19 17 20 18 15 14 17 15 10 16 19 20 20 19 15 14 17 17 18 18 15 14 14 12 11 11 9 10 11 13 13 12 7 8 9 10 8 7 7 4 7 11 14 16 10 6 6 4 8 9 8 7 7
24 23 21 23 25 24 27 26 30 30 31 22 25 24 28 32 15 18 11 13 15 12 10 7 9 12 7 9 19 15 16 17 14 13 14 12 10 11 15 17 18 17 21 23 23 22 19 19 16 15 18 20 19 19 16 19 19 18 20 20 16 15 15 16 12 11 11 10 10 10 9 8 7 10 9 10 8 9 8 8 8 7 6 3 3 5 3 14 13 12 11 7 7 9 7 7 5
27 28 25 25 26 25 21 23 21 26 27 27 29 20 30 19 16 18 15 14 14 11 10 8 10 9 9 9 20 21 13 9 11 11 10 8 11 14 13 15 19 18 20 22 21 21 21 18 14 14 17 18 18 16 18 19 17 18 17 19 17 15 16 15 12 13 10 9 9 9 9 10 10 8 9 8 10 11 9 8 7 7 7 7 5 5 6 4 6 10 8 11 8 5 7 7 6
29 23 28 24 27 29 22 24 25 25 23 16 21 31 28 20 14 13 11 12 11 11 10 12 10 10 8 8 13 18 15 9 9 8 10 15 13 19 14 16 20 20 20 19 20 19 18 15 14 15 16 16 17 18 18 20 16 16 14 14 17 15 16 15 12 10 11 9 8 6 5 6 8 10 12 11 11 10 8 7 8 8 7 6 7 6 8 6 5 6 10 10 10 11 7 5 7
24 26 26 29 28 19 27 15 21 16 17 19 17 17 16 16 13 9 8 10 10 12 12 10 11 9 6 8 8 10 15 19 15 16 18 22 22 18 18 21 22 22 21 17 16 16 15 14 14 16 16 16 16 18 19 19 15 14 17 16 16 15 15 14 13 7 7 7 8 6 6 7 7 8 10 10 8 10 8 8 9 8 8 8 8 8 8 7 5 9 10 6 9 15 12 7 10
23 28 32 28 19 25 18 14 21 6 13 27 15 12 17 18 11 9 10 9 12 9 11 9 9 7 6 8 10 10 13 15 14 14 15 15 16 21 24 25 23 20 12 17 17 11 8 10 16 17 17 17 18 17 17 19 18 18 18 18 17 18 16 14 12 11 8 9 7 6 6 6 6 9 9 7 9 9 8 6 9 7 6 6 6 6 7 6 4 10 9 6 7 9 8 13 16
23 28 24 21 24 22 21 21 18 25 27 22 19 21 15 17 13 10 9 10 6 9 9 13 11 10 12 16 19 19 17 14 10 9 11 14 18 24 27 19 19 22 19 14 12 12 11 13 16 13 15 19 20 18 18 19 19 17 18 19 18 16 15 13 11 11 9 8 6 8 5 8 7 8 8 7 8 8 7 9 9 6 5 6 5 5 9 6 4 8 6 8 8 6 8 8 11
29 23 10 27 22 22 23 21 22 20 23 22 22 23 14 10 9 13 11 10 7 8 9 9 14 17 17 16 17 16 14 13 9 10 13 17 20 19 24 20 17 18 19 17 13 16 15 14 11 13 13 13 16 14 18 20 20 18 18 19 19 16 14 13 12 11 8 5 7 5 7 9 10 7 8 7 8 10 8 9 7 7 7 6 4 5 7 3 5 7 5 10 7 7 7 6 7
27 23 27 19 22 20 21 26 21 23 21 19 18 20 11 10 11 9 12 10 10 10 7 12 13 13 14 14 13 9 11 13 12 13 14 14 17 16 14 11 13 11 13 10 10 12 10 9 9 10 10 13 13 13 14 15 15 15 13 15 16 17 17 14 12 13 9 9 9 7 7 8 8 7 6 8 10 11 10 9 8 9 8 7 8 6 4 5 6 5 6 8 4 5 8 7 9
30 31 29 26 24 13 20 19 25 23 19 20 18 16 12 10 12 8 9 11 12 13 13 11 11 13 9 13 14 15 17 16 13 13 12 15 15 10 9 10 9 8 9 6 5 8 9 8 7 5 8 9 16 12 11 13 12 13 15 16 18 17 16 16 15 17 16 18 11 10 9 7 9 9 9 10 11 12 12 9 11 10 11 8 8 4 4 4 5 4 4 7 5 4 7 7 8
27 28 29 27 22 26 25 23 19 29 27 18 17 12 10 9 10 9 10 8 11 11 13 15 11 14 11 15 17 16 15 16 15 14 15 17 16 12 10 9 8 7 7 8 9 7 8 7 8 6 5 8 11 13 12 15 14 14 17 15 17 17 18 15 18 20 19 19 12 13 11 11 9 10 11 12 13 11 10 9 11 12 10 11 9 8 6 4 5 4 5 4 4 4 7 10 4
Wind_Speed
7 8 7 8 8 8 7 6 6 7 6 10 10 10 10 13 9 3 3 7 2 7 10 4 6 5 6 7 12 9 9 10 9 4 4 4 3 10 10 15 17 15 15 11 11 13 14 13 14 14 15 16 16 16 17 18 18 17 17 16 17 17 16 16 16 16 16 15 15 14 14 14 14 13 13 13 13 12 13 13 13 13 14 14 13 13 13 14 15 15 14 13 12 12 12 12 12
8 8 9 8 7 6 6 7 5 6 8 8 13 12 11 5 3 8 10 1 8 5 7 6 5 6 5 8 9 7 6 11 12 10 7 7 8 7 11 13 17 15 13 12 10 11 13 14 14 14 15 16 16 16 17 17 17 17 17 17 16 16 16 16 16 16 15 15 14 14 14 13 13 12 12 13 12 11 11 12 13 14 14 13 13 13 12 13 13 15 15 14 12 11 11 11 11
9 8 8 7 7 7 7 7 8 8 9 10 12 11 6 8 0 5 11 11 7 7 2 5 7 8 9 7 8 7 8 10 10 11 6 8 8 7 10 12 14 14 14 10 10 10 11 13 13 14 14 15 15 15 16 18 17 17 18 16 16 16 16 16 16 15 14 14 14 13 13 13 11 11 12 13 12 11 11 10 11 14 13 12 12 12 12 11 12 13 14 14 13 12 10 10 9
10 9 9 6 5 7 6 5 9 9 9 9 9 6 3 5 11 8 6 9 2 6 5 6 6 8 9 8 7 4 9 8 9 6 6 5 6 9 11 11 15 13 11 11 10 10 10 14 13 14 14 14 15 15 16 16 17 17 17 16 16 16 16 16 15 14 14 13 13 13 13 12 11 12 13 11 11 12 11 9 9 13 12 10 11 11 10 10 10 10 11 12 13 13 12 10 10
9 8 9 8 7 7 7 7 8 8 11 8 6 8 8 5 9 5 6 4 5 5 3 5 6 6 3 5 4 3 6 9 8 7 7 7 11 9 11 13 13 11 11 12 11 11 12 15 13 13 14 14 14 15 15 15 16 17 17 17 17 16 16 15 15 14 13 12 12 13 13 12 11 12 11 12 12 11 10 8 9 12 11 10 9 9 9 8 8 8 9 10 11 12 12 11 10
9 9 8 7 6 6 6 8 9 11 11 11 12 7 7 9 9 5 3 6 2 2 6 9 9 3 4 9 8 7 8 2 4 7 6 7 10 11 11 12 13 12 12 12 12 10 12 14 13 13 13 14 15 15 15 15 16 17 17 17 17 17 16 15 14 14 13 13 12 13 13 12 11 12 11 12 12 10 10 10 10 10 11 10 10 9 8 8 7 7 8 9 11 11 10 9 9
6 7 6 7 7 7 8 8 9 10 13 15 12 1 9 7 7 3 5 6 1 4 4 7 5 5 4 7 13 9 8 6 2 6 7 9 11 11 11 10 11 12 12 10 11 13 15 13 13 13 14 15 16 15 16 16 17 16 17 17 17 17 16 15 13 13 13 13 13 13 12 11 11 11 11 12 11 10 10 10 12 9 9 9 9 9 8 8 7 9 9 10 9 8 8 7 7
8 9 5 7 6 6 9 10 10 10 4 4 4 6 11 8 1 4 4 5 5 7 11 5 4 8 5 8 8 6 8 7 10 12 12 10 11 11 10 9 9 11 12 10 12 14 16 14 13 14 15 15 17 17 17 17 16 16 17 17 16 15 15 15 13 12 12 13 14 13 11 11 11 11 12 12 11 11 10 11 11 10 9 9 8 9 8 8 8 9 9 8 8 7 6 5 6
8 8 7 9 9 7 9 10 10 11 11 5 1 9 4 3 5 6 4 6 4 9 12 7 5 5 4 12 10 8 6 8 13 11 11 11 10 9 6 8 9 13 17 15 12 13 13 14 14 14 14 15 16 16 16 16 14 15 16 16 14 13 13 13 14 12 12 11 11 12 11 10 9 10 11 11 12 11 11 11 10 10 9 8 9 8 8 9 9 8 8 8 7 7 6 5 4
8 7 7 7 7 10 10 10 10 10 13 5 7 9 2 6 7 5 7 7 10 7 6 6 5 8 17 14 11 7 8 9 13 12 9 8 7 11 13 15 17 19 13 10 9 11 11 16 14 14 14 14 14 13 13 13 13 13 15 14 12 12 11 11 11 11 11 10 9 9 9 9 8 11 12 13 12 11 11 11 10 9 8 9 9 9 9 9 8 7 8 8 7 7 7 5 5
7 7 7 8 9 8 9 9 10 9 13 7 2 5 5 3 4 7 4 6 9 10 8 3 4 10 11 10 8 5 15 21 18 8 6 10 19 16 14 16 15 11 12 12 12 14 12 11 18 13 12 11 11 10 11 11 11 11 12 11 11 10 11 10 11 12 10 10 8 7 9 9 10 11 11 13 13 11 11 11 10 10 9 9 9 9 9 8 8 7 8 8 7 7 7 7 5
8 8 7 8 8 8 9 9 8 8 6 8 3 6 4 2 1 5 5 5 8 4 5 7 3 7 11 7 6 8 13 12 12 10 6 17 14 14 10 9 15 7 6 11 13 13 13 11 10 14 12 11 10 10 9 10 10 10 10 10 10 10 10 11 11 12 12 10 9 7 8 10 11 10 10 11 11 10 11 11 10 10 10 10 10 9 8 8 7 8 8 8 8 7 7 8 6
9 8 9 8 8 9 10 10 10 13 5 1 5 12 7 5 2 4 7 9 8 8 10 4 4 0 6 6 4 9 6 5 6 6 11 14 12 11 8 10 10 10 8 11 15 14 13 12 11 10 11 13 10 9 9 9 8 9 9 9 9 9 12 12 12 12 11 10 9 8 9 10 12 11 11 10 12 11 11 10 10 10 10 10 9 8 8 7 7 7 8 8 7 7 7 7 6
9 8 7 9 8 10 10 10 9 8 1 13 10 6 3 3 5 2 7 8 9 7 7 10 5 17 11 10 7 6 3 6 8 17 16 14 11 9 10 5 10 8 5 11 15 15 14 13 13 13 13 10 9 9 9 9 9 9 9 9 10 10 11 12 12 12 10 7 11 9 10 10 11 11 11 10 10 9 9 9 10 10 10 10 10 8 7 7 7 7 8 7 7 7 7 6 4
10 6 7 7 9 9 8 9 8 4 3 7 9 1 1 8 2 5 7 7 7 9 10 8 7 9 4 5 5 7 8 9 11 21 16 15 17 8 8 6 9 7 6 13 13 11 10 10 9 10 11 12 11 9 8 10 11 10 9 9 10 11 11 12 13 14 16 12 10 11 12 12 11 12 10 9 8 9 10 11 10 10 10 10 9 8 7 7 7 8 7 6 6 7 7 6 3
8 7 6 7 9 9 7 8 9 10 6 6 3 10 5 7 5 4 6 6 10 7 2 2 12 8 8 6 9 11 12 11 16 16 14 14 11 8 9 8 7 7 6 7 8 9 9 8 7 9 12 14 12 9 10 9 11 12 10 11 11 11 12 13 14 13 13 11 11 11 11 10 11 9 12 10 11 10 10 9 12 11 10 10 9 8 8 7 7 7 7 6 6 7 8 7 3
7 6 7 7 9 10 7 8 6 7 11 8 2 9 4 4 8 5 3 4 11 10 5 11 10 9 8 6 9 13 11 10 17 15 12 9 9 7 8 8 6 7 5 7 8 10 11 10 8 6 7 9 10 11 11 11 11 14 10 11 11 11 11 12 15 15 12 10 10 10 9 7 6 6 7 7 12 9 8 10 12 12 11 10 9 9 8 7 7 7 7 7 7 8 8 7 4
6 7 8 8 9 11 6 10 11 8 10 7 6 7 6 5 5 4 6 10 9 7 2 14 15 12 11 10 11 11 12 12 15 13 10 8 6 7 6 8 8 8 7 6 7 9 11 9 9 9 8 7 9 9 9 9 10 11 9 8 7 9 10 11 10 9 11 7 10 7 4 4 4 3 3 7 6 7 9 10 10 11 11 10 8 8 8 8 7 7 6 6 7 8 9 4 3
7 7 8 10 8 4 9 8 7 7 12 4 4 3 1 6 4 2 6 10 5 5 8 16 15 14 10 11 11 10 10 10 13 12 11 10 9 10 8 8 9 9 9 8 7 9 9 8 9 9 8 8 7 8 9 10 10 8 9 8 7 8 10 10 8 8 5 6 7 5 2 1 3 3 3 6 6 9 9 11 11 11 10 10 8 6 6 6 7 7 6 6 6 7 5 4 4
9 9 9 10 12 8 7 6 3 6 8 4 4 4 2 6 5 4 4 9 8 8 6 15 13 11 10 10 10 9 9 10 11 11 10 9 9 9 10 11 11 10 9 9 10 8 11 10 12 8 8 8 6 7 8 9 8 8 8 7 7 6 7 6 6 5 5 6 4 3 3 2 3 3 7 9 9 6 6 7 10 11 10 10 9 5 4 4 4 6 7 6 4 4 4 4 5
7 10 10 11 7 5 0 3 9 6 6 7 6 5 5 8 10 3 6 7 11 4 14 11 11 10 11 10 10 8 8 10 11 10 9 9 8 7 8 9 11 11 9 9 10 10 12 12 10 8 9 8 6 4 7 9 8 8 7 7 7 5 5 4 5 4 5 5 4 3 4 4 3 3 4 3 3 5 4 4 5 5 5 5 9 4 3 4 3 4 3 4 4 6 7 5 5
5 11 13 14 15 8 9 2 5 5 8 9 8 10 8 9 6 4 10 12 9 6 11 11 12 14 11 9 9 8 10 10 11 10 7 7 10 9 8 7 9 9 10 9 10 11 12 12 10 10 10 8 7 8 8 9 9 8 5 6 6 6 5 4 3 4 4 4 3 3 4 5 3 4 4 4 3 4 5 5 6 5 5 4 6 4 5 4 3 3 3 4 5 4 4 2 3
10 8 12 13 12 10 9 4 1 3 6 8 9 8 7 7 7 8 9 11 11 10 7 9 11 11 11 9 8 8 10 10 11 12 10 11 11 9 9 8 8 10 10 10 10 10 11 12 11 11 11 8 8 8 7 8 7 7 6 5 6 5 7 6 5 4 4 4 4 3 3 5 5 3 4 4 4 5 5 6 5 5 5 5 5 5 5 5 5 5 5 4 5 5 5 3 2
10 9 9 12 11 13 11 11 6 6 5 8 9 9 10 8 11 7 12 11 14 12 9 5 9 10 10 10 8 9 9 9 10 13 14 11 11 13 10 9 9 8 9 9 10 10 11 13 12 13 9 10 9 9 8 7 8 7 5 8 5 5 7 5 5 5 5 5 3 2 2 2 4 4 3 4 4 4 6 6 5 5 6 5 5 6 4 4 5 4 6 5 6 5 3 4 4
11 12 12 13 12 5 8 9 9 8 9 9 10 10 11 10 11 10 13 9 6 12 6 4 11 10 8 8 9 7 7 6 6 2 7 4 8 10 11 8 10 10 10 10 9 10 12 11 13 11 9 11 7 7 6 7 7 6 6 8 6 5 6 4 5 6 5 3 4 4 4 3 1 3 4 3 3 4 4 4 4 3 3 4 4 5 5 5 6 5 3 1 1 3 4 1 3
12 13 11 11 12 11 10 9 9 8 7 7 10 11 11 13 12 13 14 10 10 13 5 6 11 10 9 7 5 6 8 5 7 3 4 10 10 12 10 10 9 9 10 11 11 9 10 8 11 9 7 7 7 3 4 6 6 6 6 9 7 5 5 6 6 6 6 5 4 4 4 4 3 4 2 1 3 3 4 3 3 3 4 2 2 2 0 1 2 5 2 2 1 3 4 2 2
1 11 13 13 12 12 10 12 11 10 9 9 10 11 12 11 10 9 11 12 18 8 3 8 7 10 8 7 8 5 6 6 2 6 10 8 7 8 10 8 9 8 9 11 9 7 6 8 9 7 6 7 8 7 6 7 6 6 8 8 7 5 4 4 5 5 5 5 5 5 5 4 5 3 1 2 1 2 5 3 4 1 1 1 2 1 2 2 2 2 2 0 2 2 5 5 5
7 9 7 10 11 12 13 12 11 8 9 9 11 13 12 12 11 11 9 13 16 7 9 6 11 9 7 7 7 4 3 5 5 11 13 5 6 8 7 7 9 10 10 11 9 8 6 6 7 8 5 7 6 6 6 6 7 6 6 8 8 8 6 5 5 4 5 4 5 5 5 4 2 2 2 3 2 3 6 3 3 3 0 1 1 2 2 1 2 3 2 1 0 2 2 3 2
10 10 10 10 12 12 12 14 13 11 10 8 10 12 14 13 14 13 13 17 10 7 9 9 14 10 9 9 7 4 4 3 3 6 5 5 5 6 9 8 8 10 10 13 12 12 9 7 9 10 10 8 10 9 6 6 7 6 5 7 6 7 7 6 6 5 6 5 5 6 7 7 5 4 5 5 7 10 5 3 3 3 4 3 2 2 3 1 2 3 0 0 2 1 1 1 1
10 9 9 11 12 13 15 15 14 13 10 11 8 9 9 12 17 16 14 16 9 10 9 8 10 11 7 8 8 7 7 5 7 7 6 8 7 9 10 9 9 8 9 10 13 14 9 7 6 6 7 11 10 7 7 6 6 4 4 7 6 6 5 6 6 5 5 5 5 4 3 4 4 2 4 8 11 6 4 4 4 4 4 3 2 3 2 2 2 3 3 3 3 2 2 3 1
10 10 9 9 8 11 14 14 15 12 9 11 4 8 9 14 15 18 16 17 12 10 10 7 12 11 8 7 6 8 11 14 15 12 14 8 7 8 10 10 11 9 10 12 14 15 12 11 9 8 12 9 7 7 9 8 8 5 3 6 6 6 5 5 5 5 4 2 2 1 2 4 9 8 7 8 4 3 3 1 2 1 2 3 3 2 2 0 1 0 2 1 2 1 2 2 1
8 8 10 9 10 11 16 15 13 11 10 10 8 8 12 14 16 16 19 17 11 9 10 15 12 12 9 8 7 7 4 6 7 10 6 8 6 9 10 11 9 8 11 13 13 13 12 13 13 11 10 9 8 9 8 8 10 7 5 5 6 3 5 6 5 6 5 4 3 3 3 3 3 6 5 4 4 2 2 4 1 0 2 2 2 2 2 2 0 1 0 2 1 1 2 3 3
10 10 9 10 11 11 3 13 13 12 6 10 10 9 10 13 8 0 15 12 9 10 7 16 15 15 12 8 5 3 4 5 7 9 6 7 3 8 8 8 8 11 11 14 14 11 12 12 13 13 12 12 10 9 8 8 10 7 4 3 2 4 4 5 4 5 5 5 5 4 2 3 4 1 1 3 3 4 6 5 7 8 1 1 1 1 1 2 3 2 2 1 3 3 5 5 4
10 10 10 11 12 10 9 14 12 14 12 9 13 10 12 14 12 7 11 5 11 10 9 12 11 9 13 11 9 6 5 6 8 8 4 4 2 8 6 7 8 10 11 14 14 13 13 12 11 11 10 9 6 6 6 6 10 9 3 1 2 2 4 4 4 5 6 5 6 6 5 5 3 3 2 5 3 4 3 4 4 7 3 3 3 3 3 1 3 2 1 2 4 3 3 4 5
9 9 10 10 13 15 13 11 15 11 10 8 8 11 11 13 12 8 9 9 9 9 9 11 11 11 9 9 9 8 3 6 4 2 3 4 16 11 3 6 8 10 10 14 13 11 9 7 9 11 10 9 5 5 5 5 8 7 7 3 2 3 3 5 4 5 6 5 5 6 6 4 4 3 3 4 5 4 3 3 2 0 2 2 2 3 2 4 3 2 2 1 4 3 1 4 5
14 12 10 12 9 9 11 6 13 11 10 9 11 11 8 12 13 8 11 14 11 11 9 11 8 8 9 10 6 3 3 7 3 8 12 8 4 7 15 12 5 8 10 12 14 12 10 9 8 9 9 8 8 7 6 6 6 7 7 5 4 3 3 3 4 2 4 5 4 6 6 5 5 3 3 4 3 4 3 1 1 2 2 2 2 2 1 1 0 1 1 1 4 1 1 4 5
17 16 15 9 10 12 12 17 10 9 3 6 6 8 10 12 12 11 12 10 10 9 10 9 11 9 8 7 7 8 6 7 3 1 5 6 8 6 3 10 13 9 10 12 13 13 12 9 9 9 8 9 7 7 7 6 6 7 10 11 9 7 4 3 2 5 4 4 6 6 8 6 7 5 4 4 3 4 4 2 1 2 2 2 2 1 0 1 0 1 1 0 4 2 1 4 6
17 14 12 11 13 10 13 6 18 11 7 6 6 11 14 13 12 14 11 12 13 11 10 11 10 13 11 11 10 9 11 8 4 3 6 6 6 7 6 1 10 14 7 11 12 10 9 8 7 5 4 4 3 3 3 5 6 6 6 7 5 7 9 7 6 4 4 4 5 5 6 6 6 4 4 4 4 3 4 3 2 2 1 1 1 0 2 4 3 1 3 1 2 3 1 5 7
15 11 8 11 12 8 9 10 12 8 5 4 6 11 12 13 13 14 13 16 9 11 9 10 12 10 11 13 17 16 12 11 9 3 4 5 7 6 7 6 3 13 10 2 9 9 8 9 9 7 6 5 3 2 6 4 3 3 4 6 2 4 3 4 3 4 5 6 4 5 5 6 6 5 4 4 4 4 3 3 3 2 2 1 2 1 4 3 3 4 2 3 3 1 3 5 3
12 11 8 11 11 9 7 9 18 8 7 6 8 9 9 13 15 14 13 15 15 11 12 12 13 13 11 12 13 23 23 19 14 12 10 7 6 8 8 8 9 6 8 13 13 14 11 10 7 2 2 5 8 10 3 3 9 5 0 4 8 5 5 7 6 5 5 5 6 5 1 2 5 5 5 5 5 4 3 4 3 2 3 5 4 7 7 7 7 5 7 3 3 4 3 3 4
9 10 9 11 14 12 12 9 11 9 6 6 2 8 11 12 13 10 12 14 15 15 11 12 12 13 12 9 7 18 16 15 12 11 9 8 9 10 11 12 9 7 8 9 10 9 7 9 14 13 11 11 9 4 6 7 4 6 5 5 7 6 3 6 7 6 5 4 4 5 5 3 4 5 5 5 4 5 4 3 3 3 3 3 3 3 6 6 7 5 5 4 1 2 4 3 3
9 12 14 14 14 14 13 14 14 6 7 7 9 8 10 11 16 16 12 8 12 15 15 13 12 12 11 11 10 18 15 13 14 13 12 12 12 9 5 6 6 13 9 7 11 11 11 10 11 10 8 6 3 5 6 7 6 4 3 5 5 6 6 5 6 7 6 5 4 3 4 4 4 3 4 3 4 4 5 5 5 6 5 5 2 2 1 0 2 3 3 3 5 2 3 6 4
10 9 13 16 18 17 15 15 13 11 11 5 7 11 7 8 12 14 15 15 15 13 14 13 10 8 8 8 12 14 15 13 11 12 12 11 10 8 6 5 9 14 7 5 4 8 9 7 8 8 7 5 5 7 7 7 6 4 4 2 4 6 7 5 5 5 4 4 5 4 2 1 2 3 3 4 4 5 5 5 5 6 5 4 3 2 0 1 1 3 3 2 2 2 3 3 5
11 10 13 12 15 16 16 16 13 12 7 9 13 12 10 9 9 11 13 16 17 17 15 14 12 7 10 10 8 14 14 14 14 14 15 13 11 9 8 7 12 10 10 5 4 6 12 12 10 10 9 10 10 10 10 8 7 7 6 4 3 4 5 7 7 6 4 5 6 6 5 2 0 3 1 5 6 7 4 2 2 3 5 5 4 2 2 1 2 3 3 3 2 3 3 5 4
9 11 13 11 11 12 14 11 10 9 10 11 11 14 12 10 9 10 12 13 11 10 10 13 9 8 10 11 7 15 12 10 13 12 13 12 11 10 10 13 12 11 8 8 8 10 9 12 13 12 13 13 13 16 12 10 8 6 4 4 4 2 5 7 7 6 5 5 7 3 4 1 1 3 1 6 8 4 6 4 6 4 3 3 4 2 1 3 2 5 3 2 4 2 3 3 2
13 14 15 15 9 6 10 10 12 12 12 13 13 11 11 10 7 9 8 10 8 7 10 7 2 7 4 8 15 12 10 6 7 6 10 8 8 8 13 14 11 11 12 6 9 8 9 9 13 12 12 13 12 16 14 12 9 7 1 3 5 5 5 5 6 6 6 5 5 4 3 1 1 3 2 7 5 5 3 4 1 2 3 2 3 3 0 3 3 3 4 3 4 4 2 2 3
8 11 13 9 8 8 9 8 10 8 9 15 14 15 13 10 8 5 2 4 2 6 1 6 4 8 8 5 12 11 9 6 4 2 8 9 9 8 13 12 11 11 6 9 9 10 9 9 11 9 11 6 4 7 15 14 12 11 7 5 5 6 6 7 6 6 6 6 7 7 6 3 3 4 5 7 9 6 4 2 5 4 4 4 6 5 3 2 2 2 3 5 5 4 3 3 3
10 8 8 8 10 9 9 10 10 8 10 13 14 14 15 12 7 2 7 6 7 5 4 3 4 3 1 2 9 10 10 9 6 9 7 9 10 10 9 9 8 9 9 11 10 9 8 8 6 7 8 8 5 4 7 12 12 11 9 8 7 6 7 6 7 8 7 7 6 6 5 5 5 6 6 7 5 5 6 6 5 4 3 2 5 6 7 5 4 2 2 1 4 4 4 3 2
9 10 8 8 7 5 7 9 9 10 9 10 13 15 12 13 5 8 6 6 9 7 5 3 1 1 1 4 12 6 5 4 3 4 6 5 5 5 2 6 6 10 9 11 11 9 8 7 6 8 9 10 7 7 6 10 10 10 9 9 8 8 7 7 6 7 6 6 5 6 5 4 4 6 6 5 4 3 3 3 3 3 2 0 1 2 3 9 6 4 2 1 3 4 3 3 2
12 11 10 9 8 8 7 8 6 9 11 12 13 12 11 6 8 11 9 8 7 6 5 3 4 5 6 5 11 3 2 2 1 4 5 4 5 7 7 6 10 9 9 9 9 9 8 7 6 8 10 9 8 7 7 8 9 9 11 11 9 8 7 6 6 6 5 5 5 6 6 6 5 4 4 4 4 4 3 3 3 3 3 2 2 3 3 3 4 6 4 6 1 2 4 3 2
13 11 11 10 9 7 6 7 7 8 7 7 6 7 5 6 2 4 6 5 5 3 5 7 6 6 4 4 8 7 2 1 2 4 6 9 7 4 4 4 6 9 9 8 8 7 7 5 4 4 7 8 8 7 6 7 7 8 8 9 9 7 6 5 5 5 5 5 3 4 3 3 5 5 5 4 4 4 3 4 4 4 3 3 3 2 3 3 2 2 4 6 4 3 2 1 3
9 9 10 12 10 8 10 4 8 7 5 5 4 1 5 5 6 1 1 4 4 6 6 6 6 4 3 4 3 4 4 3 2 1 1 3 4 7 5 6 6 6 5 3 5 5 6 3 2 3 4 5 6 7 7 8 7 7 8 10 9 8 6 5 3 2 4 4 4 3 2 3 4 5 6 5 3 5 4 4 4 3 3 3 3 3 4 3 3 5 5 3 6 5 3 4 3
8 11 13 12 10 12 5 5 6 1 2 6 3 4 4 5 4 4 3 3 6 4 6 5 4 3 3 1 4 3 4 5 6 7 6 8 6 6 2 5 6 6 2 8 6 0 2 3 2 3 4 4 7 7 9 10 8 9 11 10 9 8 8 7 5 4 4 3 3 3 1 3 4 5 4 3 4 4 4 3 4 3 2 3 3 3 3 2 2 6 5 3 4 5 5 7 4
7 11 10 12 14 12 6 6 4 6 9 5 7 9 5 5 1 0 2 3 2 4 3 5 6 6 8 9 11 10 7 6 5 1 3 5 8 8 6 1 4 6 7 7 8 7 5 7 9 8 5 7 7 9 7 8 9 10 10 10 10 9 8 7 6 6 5 4 1 1 1 5 4 5 4 3 3 3 4 6 4 3 2 3 2 3 4 2 3 5 3 5 4 4 5 5 6
14 9 5 10 6 9 7 3 7 6 7 5 8 8 3 2 3 3 3 2 2 3 2 5 8 10 10 8 7 6 8 5 4 3 7 9 9 7 6 8 8 11 10 7 7 9 8 5 4 4 5 4 4 5 5 5 5 5 7 9 10 9 7 7 7 6 5 3 4 2 4 5 6 4 3 3 3 3 4 5 4 3 2 2 1 3 3 2 3 3 3 6 4 4 4 4 4
16 12 12 9 8 8 6 5 7 6 6 4 5 5 2 2 2 3 3 2 1 2 1 7 8 8 8 7 5 5 6 5 5 7 5 4 7 5 2 2 0 3 5 3 2 1 4 5 4 2 4 7 5 2 5 2 1 4 4 8 8 7 7 7 7 8 6 2 2 4 4 5 5 4 3 3 4 4 4 4 3 3 3 2 3 2 2 3 4 3 4 5 2 4 5 4 5
12 12 11 9 7 3 5 5 9 8 5 5 4 5 2 2 4 3 3 5 3 2 4 5 6 8 3 5 4 6 8 6 6 7 7 8 7 3 3 3 3 3 4 4 3 4 3 2 3 2 1 4 6 5 2 3 6 6 4 7 10 8 9 8 8 7 7 5 3 4 4 3 4 3 3 3 4 4 4 4 4 4 3 3 3 1 2 2 3 2 1 4 3 2 4 4 5
11 11 12 12 10 9 9 7 4 7 5 1 4 2 3 3 3 4 4 3 5 5 6 4 5 6 4 3 5 6 8 8 9 8 7 7 6 3 3 5 4 3 4 5 4 3 4 3 4 3 3 5 6 8 7 6 1 4 7 9 10 8 9 9 9 8 7 8 6 7 5 4 3 3 3 4 5 4 4 4 5 4 4 4 3 3 2 1 2 2 3 2 1 1 4 6 3
Wind_Direction
264 239 240 230 232 256 267 215 246 193 233 244 260 249 250 240 347 207 86 117 274 37 68 352 11 341 325 321 325 323 332 359 33 326 68 95 174 123 134 138 118 120 119 131 133 141 138 133 136 136 135 134 133 131 133 134 131 131 129 125 122 120 118 117 120 121 121 118 116 117 119 120 121 122 121 119 117 113 111 112 112 111 107 107 108 98 96 91 87 88 86 87 93 93 86 85 74
238 236 228 232 239 249 232 206 253 257 210 246 251 250 266 98 302 261 268 291 77 67 18 347 300 279 255 261 260 292 45 58 66 79 91 127 116 112 126 134 127 128 134 129 138 140 141 138 133 135 135 132 132 132 132 132 133 127 126 124 121 120 119 117 118 121 123 122 118 121 123 123 125 125 124 121 117 112 110 114 116 115 112 113 110 104 96 92 88 88 91 91 87 90 92 91 83
262 247 230 218 238 238 291 224 243 247 244 237 253 241 123 225 28 82 46 49 14 17 21 302 305 255 239 223 240 242 89 60 87 91 102 119 119 120 133 134 123 129 134 128 137 136 136 139 132 133 132 131 130 128 127 131 130 128 127 122 123 122 121 119 120 123 124 122 120 121 125 125 124 124 124 122 116 112 112 114 121 118 117 117 113 108 98 94 95 91 87 89 91 88 91 93 89
289 284 280 218 235 201 240 225 240 258 258 270 274 57 278 73 48 47 51 39 342 1 319 299 295 70 285 240 29 97 88 67 68 112 113 165 122 141 135 132 126 125 131 139 129 126 132 135 128 126 126 126 126 126 125 128 128 124 123 121 122 125 123 120 122 124 126 124 122 124 129 131 125 122 120 116 110 113 120 128 127 120 118 120 114 108 105 98 98 98 92 88 86 86 86 87 83
268 267 256 254 272 232 230 240 239 233 249 251 259 72 58 338 68 45 50 31 278 228 242 266 267 211 317 335 31 18 56 100 66 71 105 94 126 144 137 131 132 131 136 136 126 117 122 121 117 118 120 122 121 122 121 123 124 123 122 126 128 126 125 125 126 125 125 128 127 130 132 132 129 125 117 113 113 119 129 125 115 119 124 125 118 115 113 107 98 99 97 88 85 80 81 82 80
250 257 244 244 235 331 297 253 238 237 247 263 278 76 46 47 56 41 14 246 359 340 249 272 263 281 148 49 46 73 9 359 60 72 111 112 136 142 142 138 132 136 145 133 119 110 120 103 110 111 110 112 118 121 122 124 124 124 127 129 131 131 133 129 130 133 134 133 135 137 138 133 132 131 120 121 123 128 122 120 119 125 131 128 124 123 122 114 104 97 93 88 82 80 76 75 78
230 229 219 213 252 257 256 249 249 244 238 235 252 37 79 79 45 341 297 351 155 313 162 234 245 243 196 125 75 50 48 48 46 90 101 129 128 137 137 137 135 132 129 112 114 109 106 97 99 102 106 115 122 120 125 126 127 128 132 133 134 135 135 135 136 140 142 140 143 145 143 138 136 133 130 129 130 129 119 120 126 129 134 131 127 131 123 116 109 95 86 81 77 75 73 77 81
247 275 215 209 234 216 232 244 256 265 264 256 21 339 72 49 221 64 323 305 122 293 134 261 269 293 62 192 102 58 64 58 96 98 117 130 134 136 139 125 115 113 108 95 91 94 105 90 95 101 111 118 125 124 128 130 130 133 135 135 136 137 139 141 142 143 143 147 149 148 147 144 141 141 140 137 135 129 123 128 133 137 135 132 130 128 125 112 98 90 83 84 83 75 77 82 85
233 234 266 259 252 240 245 241 245 240 268 213 305 54 41 62 41 260 306 264 324 261 242 242 191 226 159 94 92 103 90 85 83 96 111 127 133 130 115 112 114 79 53 50 56 96 102 92 94 103 113 121 125 127 129 128 129 132 133 135 137 141 142 143 145 142 144 147 148 148 147 144 140 144 142 139 135 132 132 137 136 134 130 132 132 127 116 107 96 89 86 80 76 77 77 86 102
234 231 218 238 246 249 243 243 239 244 242 197 98 96 19 25 325 10 274 271 263 356 347 325 14 284 85 103 105 69 72 72 70 59 68 92 88 49 35 24 52 64 75 89 119 104 106 99 92 98 105 114 121 123 122 124 129 132 134 135 141 142 142 142 140 141 144 145 143 145 144 141 144 146 145 137 134 134 137 136 130 133 133 133 130 123 112 98 99 95 84 77 73 74 81 97 112
235 203 254 268 253 254 253 252 236 216 237 91 2 52 62 349 25 320 310 308 319 281 289 81 245 253 99 90 73 101 66 55 54 28 311 75 54 53 52 68 78 113 133 129 113 110 106 107 98 91 96 104 109 113 120 126 129 130 131 135 141 140 137 133 138 142 135 123 116 121 142 141 142 142 145 138 132 137 137 136 136 138 139 135 128 123 110 106 99 88 83 80 78 86 88 94 115
249 231 199 240 250 249 249 253 253 237 174 95 241 101 79 316 212 267 317 334 299 270 231 138 269 218 100 95 87 76 70 96 135 158 233 80 83 79 86 98 115 107 83 109 105 102 108 110 105 103 98 103 105 112 118 118 122 126 132 136 141 137 132 124 119 120 126 130 125 121 134 139 145 141 139 137 130 136 143 142 143 140 139 136 130 127 115 105 101 89 86 83 86 93 97 98 99
250 258 228 243 257 258 267 279 278 330 15 68 147 90 131 234 358 339 290 357 276 258 266 225 5 331 110 105 100 85 72 149 117 140 66 70 71 75 73 97 104 115 131 114 114 114 122 123 128 126 119 117 106 107 118 120 116 125 131 137 137 131 129 118 122 128 133 137 133 134 141 143 146 145 145 136 137 142 144 142 142 139 138 137 128 118 116 113 100 97 92 92 96 102 105 105 106
238 240 272 262 261 267 278 286 298 257 222 72 80 122 85 304 51 324 301 277 289 268 57 5 315 92 104 117 143 117 190 152 156 90 78 80 77 92 116 135 117 113 103 122 118 130 134 139 145 140 133 133 126 124 117 120 124 125 128 134 129 130 128 121 123 123 117 137 143 140 138 146 146 147 148 133 138 139 134 140 137 140 140 133 128 123 123 114 109 100 96 100 103 104 108 112 112
245 247 258 274 283 281 259 251 259 270 214 103 72 25 197 109 255 249 254 268 256 16 339 337 309 289 112 183 139 164 178 168 135 95 107 114 127 146 124 102 96 98 91 128 128 121 121 135 127 132 136 140 144 153 145 136 131 125 124 127 130 130 130 126 127 135 147 175 153 148 150 150 150 149 143 136 133 128 137 143 138 139 139 134 135 136 127 126 117 110 107 106 114 123 117 115 127
252 273 266 265 253 255 239 244 243 282 82 93 136 95 267 297 48 349 329 33 308 304 45 352 40 75 85 68 155 158 168 147 116 105 109 109 108 109 104 104 116 110 93 92 102 118 120 120 140 154 154 151 152 142 134 138 137 130 127 137 139 139 137 133 139 151 158 160 161 152 157 153 150 150 149 146 140 137 147 148 144 143 143 142 141 141 138 137 132 121 117 121 120 129 131 126 141
240 253 269 248 253 242 256 253 221 227 116 81 13 57 341 335 77 283 35 247 247 253 171 84 107 74 71 85 129 146 137 137 117 108 102 101 112 115 117 126 128 116 111 109 116 130 135 145 155 163 142 128 125 135 140 141 139 129 128 135 136 136 135 146 152 145 157 156 155 159 156 158 149 148 159 159 153 149 156 142 152 149 146 150 151 152 151 146 141 130 134 135 136 140 138 134 141
231 228 247 248 248 241 248 41 12 342 43 63 59 50 346 230 37 328 331 256 218 284 189 103 91 92 87 93 114 131 135 136 126 114 117 122 125 128 133 141 142 131 124 117 129 139 143 155 159 147 134 130 132 138 138 138 140 138 135 135 134 138 140 145 148 151 151 147 152 149 140 132 140 136 145 158 150 154 147 151 159 156 155 156 162 163 158 152 149 141 141 152 155 150 149 144 150
233 231 236 250 224 246 296 36 10 314 57 340 29 126 89 281 37 325 319 323 332 273 199 120 108 109 117 109 119 132 138 135 136 120 137 148 144 146 141 148 144 139 138 138 142 143 147 151 153 142 139 133 135 131 136 138 141 140 141 143 139 146 156 152 150 146 134 144 149 145 136 144 112 119 142 151 159 156 150 155 159 158 159 162 167 172 166 166 156 148 153 163 174 172 181 174 165
222 253 233 236 265 298 345 5 296 315 26 308 321 31 305 279 305 303 282 310 300 252 247 109 114 123 117 120 129 145 151 151 136 134 145 146 146 146 146 154 152 152 146 149 153 150 153 157 154 145 140 139 143 145 107 137 144 139 146 151 149 153 158 150 147 140 139 158 138 129 125 126 129 146 155 148 149 145 151 152 157 160 162 166 168 169 170 186 181 159 168 174 197 200 218 209 160
176 234 246 244 214 330 253 15 315 330 342 316 317 312 320 288 259 11 309 272 250 12 63 114 120 131 129 138 146 164 156 161 141 148 147 156 153 148 155 163 161 153 153 145 155 157 157 155 149 151 147 146 161 148 133 138 140 145 150 149 147 144 122 117 147 143 146 147 141 156 153 157 149 129 117 123 141 146 155 157 161 168 167 174 179 180 181 180 203 194 180 189 216 207 211 203 162
241 226 241 261 285 299 303 2 9 344 298 300 286 275 285 291 319 291 260 258 262 23 116 100 139 134 143 155 158 167 163 168 151 140 159 172 159 157 151 162 148 151 136 161 160 157 159 154 155 156 158 166 162 154 150 146 148 135 122 127 134 127 128 139 130 138 145 134 157 173 158 147 155 148 142 151 162 160 169 174 188 177 186 181 197 193 191 162 206 206 197 199 228 234 239 154 143
242 238 260 266 272 288 283 8 233 69 296 285 287 290 305 296 302 288 285 280 290 294 118 156 136 142 144 154 159 169 173 177 166 148 179 189 165 155 164 160 158 154 160 165 157 154 155 158 156 159 163 163 156 153 156 152 136 128 136 119 112 127 136 142 149 146 151 153 171 162 147 146 153 159 148 165 166 181 197 184 201 185 194 198 189 225 181 164 199 202 188 203 226 235 231 144 178
243 257 240 239 247 252 254 261 279 262 271 273 271 273 265 277 272 261 250 243 260 279 65 5 122 126 146 154 159 174 184 181 172 165 178 186 176 162 160 161 169 160 170 155 160 152 155 162 159 167 172 164 152 160 163 148 130 135 134 123 104 128 129 140 153 153 146 151 156 124 151 157 148 144 160 160 189 195 209 203 200 204 195 198 181 224 174 184 196 222 186 194 219 231 223 155 174
230 239 257 278 284 303 296 295 287 279 268 274 275 276 268 263 260 260 263 271 292 271 63 224 117 120 120 142 166 174 192 172 151 168 174 170 176 158 157 158 177 164 166 153 150 149 155 166 166 175 171 160 147 162 161 132 128 129 125 110 125 152 119 164 148 128 135 136 147 162 166 158 149 158 182 188 162 227 236 208 194 220 193 204 195 231 169 183 199 193 149 225 308 318 310 199 181
230 251 248 248 252 256 246 252 256 264 275 265 264 255 259 259 259 254 262 261 255 255 94 285 131 134 137 147 137 70 69 17 307 253 180 219 180 157 169 163 169 174 153 152 151 154 153 157 175 172 151 150 149 156 126 115 115 127 113 115 138 153 154 166 139 136 134 146 151 161 181 172 166 177 182 76 155 223 263 207 218 212 211 199 173 228 19 78 45 39 52 22 250 221 248 224 112
258 231 235 250 259 263 249 248 253 253 251 247 250 252 255 248 240 254 234 250 252 246 248 227 152 131 121 138 93 110 130 150 145 272 240 210 154 161 178 155 165 171 152 153 144 126 123 149 176 147 110 146 156 151 138 134 133 117 122 132 133 136 158 144 131 139 135 136 151 167 189 180 174 158 197 122 78 247 259 208 213 109 179 176 190 172 92 104 104 90 73 109 329 342 16 15 43
241 246 271 271 270 260 271 272 264 262 249 249 254 268 272 269 266 256 256 229 239 199 227 199 116 133 130 125 110 137 155 147 174 215 246 171 174 167 169 172 166 165 161 143 124 114 137 148 152 131 138 149 155 146 144 129 119 127 142 130 143 145 170 156 144 149 127 139 145 177 163 186 175 147 190 193 157 219 231 191 169 134 147 31 329 73 58 79 145 135 144 179 224 20 46 5 52
254 269 270 262 254 256 245 245 244 234 243 242 252 262 249 242 240 245 241 261 219 189 230 218 128 133 148 144 134 164 176 187 279 254 237 216 187 157 166 172 177 164 167 140 138 136 140 166 156 147 161 168 172 174 138 119 121 152 157 103 137 146 161 154 151 163 142 160 164 189 169 171 176 162 189 203 186 216 197 154 152 167 171 172 181 167 154 198 90 107 170 106 111 168 140 164 162
256 259 264 265 261 253 236 229 228 228 228 235 235 246 251 241 236 234 232 249 188 207 222 156 153 121 139 140 145 161 159 151 234 218 242 231 193 153 166 169 166 168 155 136 135 134 150 146 129 129 158 183 172 134 122 138 133 144 155 112 144 151 158 153 154 150 135 153 173 172 170 142 110 88 208 234 203 182 152 162 179 186 160 139 135 156 162 176 152 178 169 158 187 173 162 110 22
238 240 235 249 264 258 237 215 203 225 213 217 143 263 269 270 249 214 223 235 195 206 209 153 133 130 151 149 156 177 170 186 192 200 207 214 197 162 159 163 171 169 143 141 139 147 155 146 149 164 185 182 161 141 156 148 130 146 170 128 148 173 153 141 140 121 130 127 113 111 160 132 141 193 211 245 54 343 97 298 223 150 132 137 140 213 127 36 93 38 89 192 180 150 127 111 71
226 243 232 229 241 250 258 190 182 215 201 195 197 242 262 269 268 237 201 216 182 177 220 124 158 145 154 153 178 185 163 195 193 190 195 218 212 146 156 165 168 154 141 146 139 151 153 153 167 166 173 174 164 166 163 147 133 148 167 156 165 156 134 137 140 138 149 144 161 163 154 130 131 153 233 104 83 87 136 264 179 126 127 145 169 139 119 125 41 48 346 332 159 118 168 102 64
225 231 247 243 216 253 143 157 174 206 230 171 214 252 255 245 280 234 169 175 164 201 191 143 145 152 142 147 141 216 182 203 211 211 210 227 196 140 147 164 168 152 151 142 145 154 154 165 175 153 167 168 171 166 159 133 118 127 195 149 134 121 130 129 129 120 142 171 163 157 129 132 135 213 152 90 76 76 56 15 16 310 322 77 349 94 54 92 47 42 357 300 61 20 58 59 61
224 208 235 251 254 225 234 159 192 195 214 185 186 240 259 279 302 107 111 175 204 211 200 177 163 166 154 155 153 175 215 217 217 217 222 260 240 134 155 167 158 150 148 146 148 155 163 172 164 144 152 155 148 140 127 118 116 124 160 22 133 134 142 148 150 158 157 167 164 156 147 121 141 189 135 103 105 95 99 113 161 250 355 18 22 35 44 53 132 125 64 9 44 59 57 65 62
228 210 214 231 251 265 278 164 179 219 167 240 237 225 251 265 249 188 173 185 233 247 234 155 151 149 152 133 144 137 227 247 251 231 198 28 1 359 288 161 160 147 150 149 154 156 157 156 139 143 145 145 134 117 112 114 109 129 140 189 198 180 198 175 146 193 163 151 152 139 141 129 144 148 139 112 123 120 116 132 180 96 49 19 50 36 26 42 40 55 108 81 57 51 70 75 84
229 226 216 222 232 242 253 269 139 189 160 207 237 257 240 250 266 247 179 186 205 229 233 134 157 152 144 122 115 79 41 319 318 37 51 72 90 29 336 326 301 159 152 152 155 156 161 152 141 141 141 139 145 150 134 148 155 156 144 159 188 227 212 135 144 122 127 132 152 144 116 137 167 152 144 131 131 123 129 159 120 108 109 60 37 76 27 54 78 101 81 95 82 28 72 96 101
265 271 268 269 263 251 255 226 153 168 218 239 268 256 254 263 265 250 255 249 176 212 235 163 161 161 159 163 149 142 123 258 321 165 96 103 140 130 90 330 313 288 162 158 158 158 150 153 146 144 145 144 150 147 149 152 169 157 167 174 190 174 166 81 203 165 145 117 142 140 147 173 155 161 150 140 142 136 133 170 167 143 143 124 155 65 209 141 81 129 119 129 123 184 122 122 115
262 271 290 276 267 238 230 250 147 178 200 176 229 266 272 271 270 276 286 264 231 186 214 252 208 167 163 174 176 168 173 208 242 176 129 142 140 128 107 104 300 279 235 172 160 137 135 119 122 97 75 55 23 46 149 181 183 180 172 161 153 152 150 167 156 180 135 130 135 139 142 154 144 140 146 140 143 150 140 164 162 183 103 161 120 170 228 209 172 167 212 187 177 185 100 105 144
262 264 267 260 260 274 289 282 257 234 161 193 227 273 270 261 248 255 255 266 259 181 201 223 249 223 194 195 172 166 177 178 206 147 146 182 156 147 144 160 214 281 271 33 49 64 89 72 51 50 59 75 69 186 241 200 185 44 3 50 22 35 49 123 158 145 133 136 135 136 142 162 154 147 154 157 142 166 166 151 175 181 118 203 142 185 248 230 221 173 221 201 168 147 114 106 164
245 242 236 253 256 257 236 226 269 174 185 244 244 250 256 255 263 260 248 248 262 235 197 219 230 246 223 211 207 153 173 175 176 169 170 181 189 170 171 158 180 223 299 47 48 52 42 67 98 111 178 161 189 200 181 48 45 42 72 136 110 165 162 157 157 134 120 126 135 149 92 159 149 150 164 167 168 172 180 178 181 147 163 214 181 170 189 198 191 185 191 211 167 157 140 124 131
244 264 252 236 244 249 265 276 253 256 308 298 11 287 276 280 278 254 238 234 254 263 222 215 234 235 227 226 228 136 154 157 155 158 168 174 187 208 186 188 173 152 81 87 94 127 163 145 151 162 173 185 201 145 81 75 155 216 170 129 127 153 137 124 131 131 138 135 126 148 150 178 153 154 168 178 196 166 182 165 174 150 196 224 204 194 190 180 176 177 167 173 163 138 148 129 119
254 229 240 256 264 262 256 246 267 243 241 247 243 260 256 245 243 253 264 241 224 250 257 218 222 238 228 215 132 137 144 152 167 171 176 189 199 192 206 195 161 94 120 167 176 158 152 165 156 159 159 174 155 110 130 150 196 187 113 144 140 157 137 146 138 140 144 146 141 127 136 167 163 174 157 179 207 168 181 186 173 168 183 192 195 203 228 272 194 161 140 163 144 115 138 124 121
243 236 220 236 251 266 275 281 281 255 249 225 223 244 261 250 249 229 224 243 247 232 241 240 214 220 255 261 137 144 152 157 172 164 172 189 197 185 180 190 106 112 135 181 161 150 136 132 153 155 151 152 152 155 164 161 177 159 165 185 146 162 149 137 119 105 122 127 111 103 84 81 210 175 178 167 219 192 198 199 169 166 165 194 169 178 81 231 192 128 137 77 82 127 131 121 133
238 251 246 221 230 241 251 264 270 287 294 279 273 273 282 266 243 265 252 218 222 225 226 223 211 207 234 243 166 155 152 166 168 171 177 187 181 172 162 122 112 127 138 146 147 138 154 159 163 169 160 168 176 167 177 174 164 166 164 183 167 166 139 130 127 136 128 124 111 123 148 138 316 70 0 236 229 185 171 193 162 202 173 167 164 160 185 146 156 106 67 99 95 73 93 123 152
239 230 251 245 231 242 247 243 258 256 274 262 245 246 253 252 272 279 286 291 278 282 251 239 197 206 243 234 191 156 155 172 166 166 181 177 169 165 139 114 122 115 140 166 181 173 168 176 179 177 172 181 179 169 168 168 161 155 148 151 156 100 119 127 131 134 124 111 125 122 105 190 195 91 112 272 228 201 172 162 189 159 191 166 130 133 160 150 164 118 123 136 120 127 109 134 129
227 260 251 256 243 226 249 241 239 244 243 249 247 254 260 260 258 240 246 258 261 249 259 294 308 210 240 66 95 146 141 179 166 170 169 164 162 143 108 119 118 162 195 166 186 175 185 184 192 180 176 194 191 165 155 155 138 94 136 178 149 131 129 133 134 120 119 110 117 114 106 125 174 115 78 280 271 212 149 154 140 151 135 144 134 145 155 128 128 125 144 144 139 126 124 130 130
244 223 247 249 256 261 272 282 282 273 243 246 250 253 260 270 243 265 218 140 98 353 136 65 43 34 10 21 122 133 155 140 73 49 69 41 11 86 122 127 147 194 170 194 175 190 198 195 199 170 175 192 259 192 152 151 137 149 171 188 155 144 153 145 132 122 120 145 147 162 157 185 181 159 176 204 228 164 135 170 115 198 186 190 158 156 142 123 110 149 144 159 141 133 148 143 123
214 239 234 264 246 216 238 244 233 243 254 255 245 237 239 259 253 279 71 85 76 65 68 104 70 96 198 331 62 76 48 61 74 75 73 105 142 135 124 135 157 186 174 188 184 179 208 218 188 169 149 161 193 196 162 143 140 152 164 155 146 159 163 155 151 139 156 159 146 133 133 147 177 172 191 206 206 145 147 172 162 169 160 205 142 154 159 150 153 124 93 186 126 157 151 133 147
216 231 229 222 239 237 235 218 226 224 245 242 244 251 241 240 47 89 77 63 59 47 54 43 97 286 268 104 100 86 87 53 64 118 99 85 67 63 76 187 201 202 196 192 185 179 193 221 196 158 153 164 172 173 178 150 147 153 159 150 166 157 159 162 149 133 161 149 137 136 144 165 161 171 181 165 123 136 128 127 144 124 122 272 154 139 141 148 148 140 139 92 154 139 132 132 135
214 219 215 213 227 233 234 227 228 243 239 243 254 256 257 96 100 48 54 36 38 57 52 41 17 18 50 79 86 101 132 162 184 95 105 113 148 177 178 183 187 222 204 194 185 183 187 208 191 174 147 161 160 173 182 161 156 162 162 157 150 144 147 154 143 150 157 147 145 146 156 162 159 162 140 125 143 143 151 151 135 127 119 84 46 52 60 64 121 149 154 131 149 101 110 126 137
210 218 223 220 226 230 236 226 241 242 265 291 287 259 272 189 39 354 66 50 41 44 54 46 58 57 76 75 106 116 171 265 196 150 158 160 174 179 162 223 235 214 211 196 176 185 183 206 187 179 149 158 160 169 187 173 158 160 145 140 132 142 143 144 148 152 143 124 131 111 127 142 144 142 138 141 174 140 119 108 99 102 106 111 107 110 81 105 252 107 102 108 133 96 64 70 121
220 232 232 235 225 230 262 265 244 269 302 301 258 239 23 64 207 66 45 66 42 40 52 52 46 61 59 91 107 121 143 186 256 290 277 282 152 177 192 217 260 276 255 231 186 147 142 170 188 211 173 170 174 178 192 185 161 160 144 142 140 138 134 134 134 80 95 114 124 98 142 167 140 131 129 164 143 115 116 113 123 111 124 133 134 129 159 162 187 113 121 146 130 129 153 111 69
187 213 227 232 241 242 230 253 278 186 231 266 244 133 107 106 144 24 70 52 71 39 54 52 66 53 30 99 109 110 83 53 13 4 0 349 338 278 213 248 263 267 359 53 42 242 157 168 177 222 199 194 202 206 197 181 167 166 153 146 136 137 142 146 145 124 87 82 104 127 196 123 107 110 122 125 112 131 145 136 107 118 129 129 150 157 126 158 102 116 152 154 115 135 149 127 148
244 226 225 235 234 248 241 248 200 232 252 249 209 217 169 190 188 351 48 83 33 70 32 41 33 32 36 18 37 35 52 95 123 87 27 5 347 293 270 348 60 87 109 157 187 198 192 184 167 172 206 200 208 221 200 179 170 168 151 139 142 143 137 128 125 118 117 119 155 180 173 103 98 106 114 124 131 138 130 102 106 126 119 105 147 132 128 163 114 107 117 104 109 116 112 134 140
240 240 232 232 186 220 220 244 239 234 229 246 240 229 73 226 138 209 172 157 95 101 49 51 39 34 44 20 53 37 27 1 21 41 59 54 61 67 99 147 167 181 168 163 166 177 176 172 157 151 165 176 278 289 243 210 186 146 142 143 129 122 122 119 114 112 113 151 161 150 96 100 101 106 126 144 140 129 102 109 121 128 130 160 154 86 107 172 108 104 98 102 149 162 139 133 127
236 239 242 239 262 233 227 200 248 243 250 253 268 255 98 42 0 196 172 127 260 81 79 57 43 53 49 20 324 84 92 41 33 62 54 68 60 59 0 270 171 129 156 158 107 75 138 157 157 125 150 155 149 269 294 249 47 71 94 114 102 117 119 116 125 122 130 130 124 98 95 105 123 145 160 164 144 129 122 123 144 133 145 139 97 129 168 92 102 121 139 157 151 140 135 135 130
201 221 237 230 243 299 279 247 232 233 252 258 255 221 82 315 307 342 60 65 352 256 98 80 61 52 50 193 254 76 76 82 85 82 74 77 88 68 325 19 25 49 48 46 79 113 133 111 85 104 225 122 103 87 57 48 64 108 144 139 143 148 131 135 136 139 143 154 150 127 122 135 135 157 162 172 144 144 140 141 135 156 143 122 131 174 97 105 103 172 108 109 184 195 147 125 120
222 213 222 230 226 216 221 240 232 246 239 185 268 296 96 115 7 343 72 142 185 265 90 72 80 112 243 124 112 80 71 69 76 93 112 104 89 82 24 35 50 46 45 67 59 108 122 114 114 78 32 52 68 90 80 102 119 206 190 156 143 142 142 147 149 155 150 174 161 143 145 133 166 136 181 171 143 140 143 147 149 149 140 133 148 118 106 123 121 73 102 163 204 179 95 110 140